User: anonymous   Login
Location: Unspecified
(0.0000°N, 0.0000°E)
Time: 11:56:32
(UTC+00:00)
Language:

USA 97 - Orbit

View from above orbital plane
View from above orbital plane
View from above satellite
View from above satellite

Ground track
Ground track

The orbit data is extracted from the following two-line orbital elements,

1 22915U 93074A   17293.32121399 0.00000000  00000-0  00000-0 0    07
2 22915  10.7769  37.1914 0007999 275.0502  84.8581  0.98523749    02
Epoch (UTC): 20 October 2017 07:42:32
Eccentricity: 0.0007999
inclination: 10.7769°
perigee height: 36249 km
apogee height: 36317 km
right ascension of ascending node: 37.1914°
argument of perigee: 275.0502°
revolutions per day: 0.98523749
mean anomaly at epoch: 84.8581°
orbit number at epoch: 0

The dashed part of the orbit path shows where the satellite is in the earth's shadow,  

DLR